Miscellaneous Local Product
Issued by NWS North Platte, NE

Home | Current Version | Previous Version | Text Only | Print | Product List | Glossary On
Versions: 1 2 3 4 5 6 7 8 9 10 11 12 13 14 15 16 17 18 19 20 21 22 23 24 25 26 27 28 29 30 31 32 33 34 35 36 37 38 39 40 41 42 43 44 45 46 47 48 49 50
007
AXUS43 KLBF 120110
MISLBF


WESTERN AND NORTH CENTRAL NEBRASKA HOURLY WEATHER ROUNDUP
NATIONAL WEATHER SERVICE NORTH PLATTE NE
700 PM CST THU FEB 11 2016

NOTE: "FAIR" INDICATES FEW OR NO CLOUDS BELOW 12,000 FEET WITH NO
SIGNIFICANT WEATHER AND/OR OBSTRUCTIONS TO VISIBILITY.

NOTE: STATIONS NOT REPORTING VARIABLES SUCH AS SKY/WEATHER OR
PRESSURE ARE PROVIDED BY THE NEBRASKA DEPARTMENT OF
ROADS...RAWS...AND APRS NETWORKS...AND ARE NOT UNDER
NATIONAL WEATHER SERVICE QUALITY CONTROL.

...OBSERVATIONS IN AND NEAR THE EASTERN PANHANDLE OF NEBRASKA...

CITY           SKY/WX    TMP DP  RH WIND       PRES   REMARKS
PINE RIDGE     PTCLDY    44  30  57 N5        30.14R
CHADRON        CLEAR     43  26  51 NW8       30.15R
ALLIANCE       CLOUDY    42  28  57 NW12      30.15R
SIDNEY         CLOUDY    41  29  62 NW10      30.19R
CRESCENT LAKE    N/A     45  29  53 NW13        N/A
BIG SPRINGS      N/A     37  31  79 SW5         N/A  WCI  33
$$

...OBSERVATIONS IN NORTH CENTRAL NEBRASKA...

CITY           SKY/WX    TMP DP  RH WIND       PRES   REMARKS
VALENTINE      PTCLDY    34  29  82 N6        30.12R WCI  29
THEDFORD       PTCLDY    43  32  64 NW7       30.10R
AINSWORTH      CLEAR     36  30  80 N17G24    30.09R WCI  26
O`NEILL        CLOUDY    29  28  95 NE10      30.11R FOG     WCI  20
ORD            MOCLDY    31  28  89 SW3       30.07R
BROKEN BOW     CLEAR     39  31  72 CALM      30.07R
VALENTINE NWR    N/A     43  29  58 N10G23      N/A
BUTTE            N/A     25  24  96 N8          N/A  WCI  16
CHAMBERS         N/A     33  28  83 E3          N/A
EWING            N/A     28  26  94 E5          N/A  WCI  23
$$

...OBSERVATIONS IN SOUTHWEST NEBRASKA AND FAR NORTHEAST COLORADO...

CITY           SKY/WX    TMP DP  RH WIND       PRES   REMARKS
HOLYOKE        FAIR      46  32  57 NW8       30.17R
IMPERIAL       CLOUDY    45  32  60 W9        30.14R
OGALLALA       CLOUDY    40  30  66 NW5       30.13R
NORTH PLATTE   PTCLDY    38  29  70 CALM      30.09R
MCCOOK         CLOUDY    44  32  62 SW8       30.11R
LEXINGTON      CLEAR     35  31  83 SW3       30.11R
PAXTON           N/A     44  34  68 W3          N/A
STAPLETON        N/A     44  31  61 CALM        N/A
GOTHENBURG       N/A     40  32  73 CALM        N/A
CALLAWAY         N/A     36  32  86 CALM        N/A
$$

...OBSERVATIONS IN CENTRAL LINCOLN COUNTY AREA...

CITY           SKY/WX    TMP DP  RH WIND       PRES   REMARKS
N.P. AIRPORT   PTCLDY    38  29  70 CALM      30.09R
N.P. DOWNTOWN    N/A     49  34  56 CALM        N/A
N.P. SOUTHEAST   N/A     50  33  51 CALM        N/A
N.P. HILLCREST   N/A     51  33  51 NW3         N/A
$$

...SOME OBSERVATIONS FROM AROUND THE REGION...

CITY           SKY/WX    TMP DP  RH WIND       PRES   REMARKS
DENVER         MOCLDY    44  28  53 SE16      30.21R
LARAMIE        CLOUDY    42  23  46 W17       30.26R
CHEYENNE       CLOUDY    45  24  43 N15G25    30.21R
SCOTTSBLUFF    CLEAR     42  27  55 N5        30.18R
RAPID CITY     PTCLDY    38  31  76 N13       30.14R WCI  30
BISMARCK       CLOUDY    24  15  68 N8        30.25R WCI  15
PIERRE         CLOUDY    28  24  85 NE3       30.19R
WINNER         CLOUDY    29  25  85 NE13      30.15R WCI  19
SIOUX FALLS    LGT SNOW  16  13  88 CALM      30.19R FOG
OMAHA          CLOUDY    26  20  77 N5        30.20R WCI  20
GRAND ISLAND   CLEAR     29  26  89 S7        30.11R WCI  22
KANSAS CITY    CLOUDY    33  21  61 E5        30.19S WCI  29
WICHITA        PTCLDY    41  26  55 S3        30.14S
OKLAHOMA CITY  PTCLDY    50  30  46 N5        30.15R
LIBERAL        CLEAR     48  25  40 S8        30.10S
HAYS           CLOUDY    41  27  56 NE12      30.13R
GOODLAND       CLOUDY    38  29  70 NW7       30.17R WCI  33
$$




USA.gov is the U.S. government's official web portal to all federal, state and local government web resources and services.